| time (UTC) | temp F | wind direction | speed MPH | gust MPH | rain 1hr in | rain 24hr in | rain mn in | humidity % | barometer mb |
| 20260903143318 | 85 | 248 | 5.0 | 9.0 | 0.00 | 0.00 | 0.00 | 77 | 1016.2 |
| 20260903142813 | 85 | 231 | 4.0 | 6.0 | 0.00 | 0.00 | 0.00 | 77 | 1016.4 |
| 20260903142309 | 84 | 238 | 5.0 | 8.0 | 0.00 | 0.00 | 0.00 | 78 | 1016.3 |
| 20260903141805 | 84 | 236 | 5.0 | 6.0 | 0.00 | 0.00 | 0.00 | 79 | 1016.2 |
| 20260903141300 | 84 | 249 | 5.0 | 8.0 | 0.00 | 0.00 | 0.00 | 79 | 1016.3 |
| 20260903140800 | 84 | 257 | 5.0 | 8.0 | 0.00 | 0.00 | 0.00 | 79 | 1016.4 |
| 20260903140255 | 84 | 247 | 4.0 | 7.0 | 0.00 | 0.00 | 0.00 | 78 | 1016.4 |
| 20260903135751 | 83 | 256 | 6.0 | 7.0 | 0.00 | 0.00 | 0.00 | 79 | 1016.4 |
| 20260903135246 | 83 | 245 | 5.0 | 7.0 | 0.00 | 0.00 | 0.00 | 79 | 1016.7 |
| 20260903134745 | 83 | 239 | 5.0 | 7.0 | 0.00 | 0.00 | 0.00 | 80 | 1016.6 |
| 20260903134241 | 83 | 242 | 5.0 | 8.0 | 0.00 | 0.00 | 0.00 | 81 | 1016.7 |
| 20260903133738 | 82 | 245 | 7.0 | 8.0 | 0.00 | 0.00 | 0.00 | 81 | 1016.7 |
| 20260903133235 | 82 | 257 | 5.0 | 10.0 | 0.00 | 0.00 | 0.00 | 82 | 1016.6 |
| 20260903132735 | 81 | 227 | 4.0 | 8.0 | 0.00 | 0.00 | 0.00 | 84 | 1016.4 |
| 20260903132230 | 81 | 248 | 6.0 | 7.0 | 0.00 | 0.00 | 0.00 | 84 | 1016.6 |
| 20260903131725 | 80 | 240 | 6.0 | 7.0 | 0.00 | 0.00 | 0.00 | 85 | 1016.5 |
| 20260903131224 | 80 | 242 | 8.0 | 9.0 | 0.00 | 0.00 | 0.00 | 85 | 1016.6 |
| 20260903130719 | 80 | 232 | 5.0 | 7.0 | 0.00 | 0.00 | 0.00 | 87 | 1016.5 |
| 20260903130214 | 79 | 240 | 4.0 | 7.0 | 0.00 | 0.00 | 0.00 | 87 | 1016.7 |
| 20260903125712 | 78 | 206 | 3.0 | 6.0 | 0.00 | 0.00 | 0.00 | 89 | 1016.6 |
| 20260903125208 | 78 | 218 | 5.0 | 7.0 | 0.00 | 0.00 | 0.00 | 90 | 1016.7 |
| 20260903124706 | 78 | 243 | 4.0 | 5.0 | 0.00 | 0.00 | 0.00 | 90 | 1016.8 |
| 20260903124202 | 77 | 231 | 3.0 | 6.0 | 0.00 | 0.00 | 0.00 | 91 | 1016.9 |
| 20260903123701 | 77 | 246 | 4.0 | 5.0 | 0.00 | 0.00 | 0.00 | 91 | 1016.9 |
| 20260903123200 | 77 | 229 | 3.0 | 5.0 | 0.00 | 0.00 | 0.00 | 92 | 1016.9 |
| 20260903122659 | 76 | 234 | 3.0 | 5.0 | 0.00 | 0.00 | 0.00 | 94 | 1016.9 |
| 20260903122154 | 75 | 224 | 3.0 | 3.0 | 0.00 | 0.00 | 0.00 | 95 | 1016.8 |
| 20260903121653 | 75 | 223 | 4.0 | 5.0 | 0.00 | 0.00 | 0.00 | 95 | 1016.8 |
| 20260903121149 | 75 | 229 | 3.0 | 6.0 | 0.00 | 0.00 | 0.00 | 96 | 1017.0 |
| 20260903120648 | 74 | 236 | 4.0 | 6.0 | 0.00 | 0.00 | 0.00 | 96 | 1016.9 |
| 20260903120143 | 74 | 225 | 3.0 | 7.0 | 0.00 | 0.00 | 0.00 | 96 | 1017.0 |
| 20260903115641 | 74 | 230 | 3.0 | 5.0 | 0.00 | 0.00 | 0.00 | 97 | 1017.0 |
| 20260903115137 | 74 | 215 | 2.0 | 5.0 | 0.00 | 0.00 | 0.00 | 97 | 1016.9 |
| 20260903114632 | 73 | 218 | 3.0 | 5.0 | 0.00 | 0.00 | 0.00 | 97 | 1016.7 |
| 20260903114127 | 73 | 220 | 3.0 | 5.0 | 0.00 | 0.00 | 0.00 | 98 | 1016.9 |
| 20260903113622 | 73 | 218 | 3.0 | 5.0 | 0.00 | 0.00 | 0.00 | 98 | 1016.8 |
| 20260903113119 | 73 | 206 | 3.0 | 5.0 | 0.00 | 0.00 | 0.00 | 98 | 1016.7 |
| 20260903112615 | 73 | 217 | 4.0 | 5.0 | 0.00 | 0.00 | 0.00 | 98 | 1016.6 |
| 20260903112114 | 73 | 244 | 2.0 | 2.0 | 0.00 | 0.00 | 0.00 | 98 | 1016.7 |
| 20260903111613 | 72 | 230 | 2.0 | 2.0 | 0.00 | 0.00 | 0.00 | 98 | 1016.6 |
| 20260903111109 | 72 | 217 | 2.0 | 3.0 | 0.00 | 0.00 | 0.00 | 98 | 1016.5 |
| 20260903110605 | 73 | 231 | 2.0 | 2.0 | 0.00 | 0.00 | 0.00 | 98 | 1016.4 |
| 20260903110100 | 73 | 232 | 1.0 | 2.0 | 0.00 | 0.00 | 0.00 | 98 | 1016.4 |
| 20260903105555 | 73 | 236 | 1.0 | 2.0 | 0.00 | 0.00 | 0.00 | 98 | 1016.5 |
| 20260903105050 | 73 | 240 | 2.0 | 2.0 | 0.00 | 0.00 | 0.00 | 98 | 1016.4 |
| 20260903104549 | 73 | 238 | 2.0 | 2.0 | 0.00 | 0.00 | 0.00 | 98 | 1016.3 |
| 20260903104045 | 73 | 238 | 2.0 | 2.0 | 0.00 | 0.00 | 0.00 | 97 | 1016.2 |
| 20260903103541 | 73 | 235 | 1.0 | 1.0 | 0.00 | 0.00 | 0.00 | 97 | 1016.3 |
| 20260903103037 | 73 | 237 | 1.0 | 1.0 | 0.00 | 0.00 | 0.00 | 97 | 1016.1 |
| 20260903102533 | 73 | 240 | 2.0 | 2.0 | 0.00 | 0.00 | 0.00 | 97 | 1016.1 |
| 20260903102031 | 73 | 250 | 2.0 | 2.0 | 0.00 | 0.00 | 0.00 | 97 | 1015.9 |
| 20260903101526 | 73 | 264 | 2.0 | 2.0 | 0.00 | 0.00 | 0.00 | 97 | 1016.2 |
| 20260903101022 | 73 | 240 | 2.0 | 2.0 | 0.00 | 0.00 | 0.00 | 96 | 1016.0 |
| 20260903100516 | 74 | 234 | 1.0 | 2.0 | 0.00 | 0.00 | 0.00 | 96 | 1016.1 |
| 20260903100015 | 74 | 229 | 1.0 | 1.0 | 0.00 | 0.00 | 0.00 | 96 | 1016.2 |
| 20260903095508 | 74 | 227 | 1.0 | 2.0 | 0.00 | 0.00 | 0.00 | 96 | 1016.0 |
| 20260903095003 | 74 | 222 | 1.0 | 2.0 | 0.00 | 0.00 | 0.00 | 96 | 1016.2 |
| 20260903094503 | 75 | 232 | 1.0 | 1.0 | 0.00 | 0.00 | 0.00 | 96 | 1015.9 |
| 20260903093958 | 75 | 242 | 1.0 | 2.0 | 0.00 | 0.00 | 0.00 | 96 | 1016.0 |
| 20260903093453 | 75 | 245 | 1.0 | 2.0 | 0.00 | 0.00 | 0.00 | 96 | 1016.0 |
| 20260903092949 | 75 | 236 | 2.0 | 2.0 | 0.00 | 0.00 | 0.00 | 95 | 1015.8 |
| 20260903092448 | 75 | 231 | 1.0 | 2.0 | 0.00 | 0.00 | 0.00 | 95 | 1015.7 |
| 20260903091948 | 75 | 227 | 3.0 | 3.0 | 0.00 | 0.00 | 0.00 | 96 | 1015.8 |
| 20260903091446 | 75 | 232 | 2.0 | 2.0 | 0.00 | 0.00 | 0.00 | 96 | 1015.9 |
| 20260903090941 | 75 | 247 | 2.0 | 3.0 | 0.00 | 0.00 | 0.00 | 96 | 1015.9 |
| 20260903090437 | 75 | 227 | 2.0 | 3.0 | 0.00 | 0.00 | 0.00 | 96 | 1015.8 |
| 20260903085935 | 75 | 230 | 2.0 | 3.0 | 0.00 | 0.00 | 0.00 | 96 | 1015.9 |
| 20260903085434 | 75 | 222 | 3.0 | 3.0 | 0.00 | 0.00 | 0.00 | 96 | 1015.8 |
| 20260903084934 | 75 | 223 | 3.0 | 5.0 | 0.00 | 0.00 | 0.00 | 96 | 1015.9 |
| 20260903084432 | 75 | 221 | 3.0 | 5.0 | 0.00 | 0.00 | 0.00 | 96 | 1015.8 |
| 20260903083928 | 75 | 217 | 3.0 | 3.0 | 0.00 | 0.00 | 0.00 | 96 | 1015.7 |
| 20260903083424 | 75 | 222 | 3.0 | 5.0 | 0.00 | 0.00 | 0.00 | 96 | 1015.9 |
| 20260903082922 | 75 | 216 | 3.0 | 3.0 | 0.00 | 0.00 | 0.00 | 96 | 1015.7 |
| 20260903082418 | 75 | 216 | 3.0 | 3.0 | 0.00 | 0.00 | 0.00 | 96 | 1015.7 |
| 20260903081913 | 75 | 222 | 3.0 | 3.0 | 0.00 | 0.00 | 0.00 | 96 | 1015.9 |
| 20260903081408 | 75 | 216 | 3.0 | 3.0 | 0.00 | 0.00 | 0.00 | 96 | 1015.8 |
| 20260903080904 | 75 | 218 | 3.0 | 3.0 | 0.00 | 0.00 | 0.00 | 96 | 1015.8 |
| 20260903080355 | 75 | 218 | 3.0 | 3.0 | 0.00 | 0.00 | 0.00 | 96 | 1016.0 |
| 20260903075855 | 75 | 215 | 2.0 | 2.0 | 0.00 | 0.00 | 0.00 | 96 | 1015.9 |
| 20260903075351 | 75 | 216 | 2.0 | 3.0 | 0.00 | 0.00 | 0.00 | 96 | 1016.1 |
| 20260903074845 | 75 | 216 | 3.0 | 3.0 | 0.00 | 0.00 | 0.00 | 96 | 1016.1 |
| 20260903074345 | 76 | 229 | 2.0 | 2.0 | 0.00 | 0.00 | 0.00 | 95 | 1016.2 |
| 20260903073840 | 76 | 221 | 3.0 | 3.0 | 0.00 | 0.00 | 0.00 | 95 | 1016.1 |
| 20260903073335 | 76 | 216 | 3.0 | 3.0 | 0.00 | 0.00 | 0.00 | 95 | 1015.9 |
| 20260903072831 | 76 | 208 | 4.0 | 5.0 | 0.00 | 0.00 | 0.00 | 95 | 1016.1 |
| 20260903072327 | 75 | 219 | 3.0 | 3.0 | 0.00 | 0.00 | 0.00 | 96 | 1015.9 |
| 20260903071824 | 76 | 218 | 3.0 | 3.0 | 0.00 | 0.00 | 0.00 | 95 | 1016.0 |
| 20260903071319 | 75 | 214 | 3.0 | 3.0 | 0.00 | 0.00 | 0.00 | 96 | 1015.9 |
| 20260903070814 | 76 | 212 | 2.0 | 2.0 | 0.00 | 0.00 | 0.00 | 95 | 1015.8 |
| 20260903070309 | 76 | 214 | 2.0 | 2.0 | 0.00 | 0.00 | 0.00 | 95 | 1015.9 |
| 20260903065804 | 76 | 211 | 0.0 | 0.0 | 0.00 | 0.00 | 0.00 | 96 | 1016.0 |
| 20260903065306 | 76 | 213 | 0.0 | 0.0 | 0.00 | 0.00 | 0.00 | 96 | 1015.8 |
| 20260903064803 | 76 | 170 | 0.0 | 0.0 | 0.00 | 0.00 | 0.00 | 96 | 1015.9 |
| 20260903064258 | 75 | 187 | 0.0 | 1.0 | 0.00 | 0.00 | 0.00 | 96 | 1015.9 |
| 20260903063754 | 75 | 104 | 1.0 | 2.0 | 0.00 | 0.00 | 0.00 | 96 | 1015.8 |
| 20260903063249 | 75 | 204 | 0.0 | 0.0 | 0.00 | 0.00 | 0.00 | 96 | 1016.0 |
| 20260903062745 | 75 | 216 | 0.0 | 0.0 | 0.00 | 0.00 | 0.00 | 96 | 1016.0 |
| 20260903062244 | 75 | 214 | 2.0 | 2.0 | 0.00 | 0.00 | 0.00 | 96 | 1016.0 |
| 20260903061741 | 75 | 216 | 2.0 | 2.0 | 0.00 | 0.00 | 0.00 | 96 | 1016.1 |
| 20260903061240 | 75 | 216 | 2.0 | 3.0 | 0.00 | 0.00 | 0.00 | 96 | 1016.0 |
| 20260903060736 | 75 | 211 | 1.0 | 2.0 | 0.00 | 0.00 | 0.00 | 96 | 1015.9 |
| 20260903060235 | 75 | 220 | 2.0 | 2.0 | 0.00 | 0.00 | 0.00 | 96 | 1016.0 |
| 20260903055733 | 75 | 218 | 2.0 | 3.0 | 0.00 | 0.00 | 0.00 | 96 | 1015.8 |
| 20260903055232 | 75 | 220 | 3.0 | 3.0 | 0.00 | 0.00 | 0.00 | 96 | 1015.9 |
| 20260903054727 | 75 | 205 | 3.0 | 3.0 | 0.00 | 0.00 | 0.00 | 95 | 1015.7 |
| 20260903054221 | 75 | 213 | 3.0 | 3.0 | 0.00 | 0.00 | 0.00 | 95 | 1015.9 |
| 20260903053718 | 75 | 220 | 2.0 | 2.0 | 0.00 | 0.00 | 0.00 | 95 | 1015.8 |
| 20260903053213 | 76 | 229 | 1.0 | 1.0 | 0.00 | 0.00 | 0.00 | 95 | 1016.0 |
| 20260903052709 | 76 | 232 | 1.0 | 1.0 | 0.00 | 0.00 | 0.00 | 94 | 1016.0 |
| 20260903052205 | 76 | 249 | 2.0 | 2.0 | 0.00 | 0.00 | 0.00 | 94 | 1015.8 |
| 20260903051705 | 76 | 243 | 2.0 | 2.0 | 0.00 | 0.00 | 0.00 | 94 | 1015.7 |
| 20260903051200 | 76 | 238 | 1.0 | 1.0 | 0.00 | 0.00 | 0.00 | 94 | 1015.7 |
| 20260903050656 | 77 | 232 | 0.0 | 0.0 | 0.00 | 0.00 | 0.00 | 95 | 1015.8 |
| 20260903050154 | 76 | 231 | 1.0 | 1.0 | 0.00 | 0.00 | 0.00 | 95 | 1015.6 |
| 20260903045650 | 76 | 226 | 1.0 | 1.0 | 0.00 | 0.00 | 0.00 | 93 | 1015.6 |
| 20260903045146 | 77 | 221 | 2.0 | 3.0 | 0.00 | 0.00 | 0.00 | 93 | 1015.6 |
| 20260903044642 | 77 | 225 | 3.0 | 3.0 | 0.00 | 0.00 | 0.00 | 93 | 1015.6 |
| 20260903044137 | 77 | 223 | 1.0 | 2.0 | 0.00 | 0.00 | 0.00 | 93 | 1015.5 |
| 20260903043634 | 77 | 228 | 0.0 | 0.0 | 0.00 | 0.00 | 0.00 | 93 | 1015.6 |
| 20260903043133 | 77 | 225 | 0.0 | 0.0 | 0.00 | 0.00 | 0.00 | 92 | 1015.4 |
| 20260903042632 | 78 | 223 | 0.0 | 0.0 | 0.00 | 0.00 | 0.00 | 92 | 1015.6 |
| 20260903042127 | 78 | 220 | 1.0 | 1.0 | 0.00 | 0.00 | 0.00 | 92 | 1015.5 |
| 20260903041624 | 78 | 219 | 1.0 | 1.0 | 0.00 | 0.00 | 0.00 | 92 | 1015.4 |
| 20260903041120 | 78 | 225 | 1.0 | 1.0 | 0.00 | 0.00 | 0.00 | 92 | 1015.4 |
| 20260903040619 | 78 | 227 | 1.0 | 2.0 | 0.00 | 0.00 | 0.00 | 91 | 1015.1 |
| 20260903040115 | 78 | 208 | 2.0 | 3.0 | 0.00 | 0.00 | 0.00 | 91 | 1015.1 |
| 20260903035610 | 78 | 226 | 3.0 | 5.0 | 0.00 | 0.00 | 0.00 | 90 | 1014.8 |
| 20260903035106 | 78 | 214 | 5.0 | 6.0 | 0.00 | 0.00 | 0.00 | 90 | 1014.9 |
| 20260903034601 | 78 | 199 | 4.0 | 6.0 | 0.00 | 0.00 | 0.00 | 90 | 1014.9 |
| 20260903034056 | 79 | 226 | 4.0 | 5.0 | 0.00 | 0.00 | 0.00 | 90 | 1014.9 |
| 20260903033551 | 79 | 239 | 4.0 | 6.0 | 0.00 | 0.00 | 0.00 | 90 | 1014.9 |
| 20260903033046 | 79 | 224 | 4.0 | 5.0 | 0.00 | 0.00 | 0.00 | 89 | 1014.6 |
| 20260903032541 | 79 | 230 | 3.0 | 6.0 | 0.00 | 0.00 | 0.00 | 89 | 1014.9 |
| 20260903032037 | 79 | 229 | 5.0 | 7.0 | 0.00 | 0.00 | 0.00 | 89 | 1014.6 |
| 20260903031536 | 80 | 239 | 7.0 | 10.0 | 0.00 | 0.00 | 0.00 | 88 | 1014.7 |
| 20260903031031 | 80 | 216 | 6.0 | 8.0 | 0.00 | 0.00 | 0.00 | 88 | 1014.4 |
| 20260903030527 | 80 | 223 | 6.0 | 8.0 | 0.00 | 0.00 | 0.00 | 88 | 1014.6 |
| 20260903030023 | 80 | 219 | 7.0 | 8.0 | 0.00 | 0.00 | 0.00 | 88 | 1014.6 |
| 20260903025518 | 80 | 218 | 6.0 | 8.0 | 0.00 | 0.00 | 0.00 | 88 | 1014.5 |
| 20260903025014 | 80 | 236 | 6.0 | 7.0 | 0.00 | 0.00 | 0.00 | 88 | 1014.8 |
| 20260903024513 | 80 | 223 | 5.0 | 8.0 | 0.00 | 0.00 | 0.00 | 87 | 1015.1 |
| 20260903024008 | 80 | 219 | 6.0 | 9.0 | 0.00 | 0.00 | 0.00 | 87 | 1015.0 |
| 20260903023503 | 80 | 214 | 7.0 | 8.0 | 0.00 | 0.00 | 0.00 | 88 | 1015.1 |
| 20260903022958 | 80 | 219 | 5.0 | 8.0 | 0.00 | 0.00 | 0.00 | 88 | 1015.1 |
| 20260903022457 | 80 | 235 | 4.0 | 7.0 | 0.00 | 0.00 | 0.00 | 87 | 1015.5 |
| 20260903021955 | 81 | 239 | 6.0 | 7.0 | 0.00 | 0.00 | 0.00 | 87 | 1015.2 |
| 20260903021451 | 81 | 221 | 7.0 | 8.0 | 0.00 | 0.00 | 0.00 | 86 | 1015.4 |
| 20260903020946 | 81 | 225 | 7.0 | 9.0 | 0.00 | 0.00 | 0.00 | 86 | 1015.1 |
| 20260903020442 | 81 | 218 | 6.0 | 8.0 | 0.00 | 0.00 | 0.00 | 86 | 1015.1 |
| 20260903015937 | 81 | 221 | 6.0 | 9.0 | 0.00 | 0.00 | 0.00 | 86 | 1015.4 |
| 20260903015432 | 81 | 218 | 6.0 | 8.0 | 0.00 | 0.00 | 0.00 | 86 | 1015.2 |
| 20260903014927 | 81 | 226 | 6.0 | 7.0 | 0.00 | 0.00 | 0.00 | 86 | 1015.1 |
| 20260903014426 | 81 | 212 | 6.0 | 8.0 | 0.00 | 0.00 | 0.00 | 86 | 1015.4 |
| 20260903013922 | 81 | 220 | 6.0 | 7.0 | 0.00 | 0.00 | 0.00 | 86 | 1015.4 |
| 20260903013421 | 81 | 215 | 5.0 | 6.0 | 0.00 | 0.00 | 0.00 | 85 | 1015.1 |
| 20260903012915 | 81 | 221 | 6.0 | 7.0 | 0.00 | 0.00 | 0.00 | 86 | 1015.1 |
| 20260903012414 | 80 | 218 | 5.0 | 6.0 | 0.00 | 0.00 | 0.00 | 87 | 1015.1 |
| 20260903011913 | 80 | 214 | 5.0 | 6.0 | 0.00 | 0.00 | 0.00 | 87 | 1015.2 |
| 20260903011408 | 81 | 217 | 4.0 | 6.0 | 0.00 | 0.00 | 0.00 | 86 | 1015.2 |
| 20260903010903 | 81 | 214 | 5.0 | 6.0 | 0.00 | 0.00 | 0.00 | 86 | 1014.9 |
| 20260903010359 | 81 | 233 | 5.0 | 6.0 | 0.00 | 0.00 | 0.00 | 86 | 1015.2 |
| 20260903005856 | 81 | 212 | 5.0 | 6.0 | 0.00 | 0.00 | 0.00 | 86 | 1015.0 |
| 20260903005352 | 81 | 210 | 4.0 | 5.0 | 0.00 | 0.00 | 0.00 | 86 | 1015.0 |
| 20260903004848 | 81 | 232 | 4.0 | 5.0 | 0.00 | 0.00 | 0.00 | 86 | 1015.0 |
| 20260903004343 | 81 | 209 | 4.0 | 5.0 | 0.00 | 0.00 | 0.00 | 86 | 1014.8 |
| 20260903003839 | 81 | 219 | 4.0 | 5.0 | 0.00 | 0.00 | 0.00 | 85 | 1014.9 |
| 20260903003339 | 81 | 212 | 3.0 | 3.0 | 0.00 | 0.00 | 0.00 | 85 | 1015.0 |
| 20260903002838 | 82 | 221 | 3.0 | 5.0 | 0.00 | 0.00 | 0.00 | 84 | 1014.8 |
| 20260903002334 | 82 | 221 | 3.0 | 3.0 | 0.00 | 0.00 | 0.00 | 83 | 1014.9 |
| 20260903001828 | 83 | 219 | 3.0 | 3.0 | 0.00 | 0.00 | 0.00 | 81 | 1014.9 |
| 20260903001324 | 83 | 215 | 4.0 | 6.0 | 0.00 | 0.00 | 0.00 | 81 | 1015.0 |
| 20260903000823 | 84 | 217 | 5.0 | 6.0 | 0.00 | 0.00 | 0.00 | 80 | 1014.8 |
| 20260903000318 | 84 | 215 | 5.0 | 6.0 | 0.00 | 0.00 | 0.00 | 79 | 1015.0 |
| 20260902235816 | 85 | 216 | 5.0 | 6.0 | 0.00 | 0.00 | 0.00 | 78 | 1015.1 |
| 20260902235312 | 85 | 219 | 5.0 | 7.0 | 0.00 | 0.00 | 0.00 | 77 | 1015.0 |
| 20260902234812 | 86 | 227 | 3.0 | 7.0 | 0.00 | 0.00 | 0.00 | 76 | 1015.1 |
| 20260902234311 | 86 | 210 | 4.0 | 7.0 | 0.00 | 0.00 | 0.00 | 75 | 1015.1 |
| 20260902233810 | 86 | 223 | 4.0 | 6.0 | 0.00 | 0.00 | 0.00 | 75 | 1015.0 |
| 20260902233305 | 87 | 217 | 4.0 | 7.0 | 0.00 | 0.00 | 0.00 | 74 | 1015.0 |
| 20260902232804 | 87 | 237 | 7.0 | 9.0 | 0.00 | 0.00 | 0.00 | 73 | 1015.0 |
| 20260902232306 | 88 | 234 | 5.0 | 8.0 | 0.00 | 0.00 | 0.00 | 72 | 1015.0 |
| 20260902231803 | 88 | 217 | 7.0 | 7.0 | 0.00 | 0.00 | 0.00 | 71 | 1014.9 |
| 20260902231258 | 89 | 204 | 4.0 | 7.0 | 0.00 | 0.00 | 0.00 | 70 | 1015.0 |
| 20260902230753 | 89 | 222 | 5.0 | 9.0 | 0.00 | 0.00 | 0.00 | 70 | 1014.8 |
| 20260902230252 | 89 | 251 | 4.0 | 8.0 | 0.00 | 0.00 | 0.00 | 69 | 1015.1 |
| 20260902225747 | 90 | 236 | 6.0 | 7.0 | 0.00 | 0.00 | 0.00 | 69 | 1014.9 |
| 20260902225242 | 90 | 233 | 6.0 | 7.0 | 0.00 | 0.00 | 0.00 | 67 | 1014.8 |
| 20260902224740 | 90 | 204 | 8.0 | 11.0 | 0.00 | 0.00 | 0.00 | 68 | 1014.9 |
| 20260902224236 | 90 | 237 | 6.0 | 9.0 | 0.00 | 0.00 | 0.00 | 66 | 1015.0 |
| 20260902223732 | 91 | 222 | 6.0 | 9.0 | 0.00 | 0.00 | 0.00 | 66 | 1015.0 |
| 20260902223231 | 91 | 223 | 7.0 | 9.0 | 0.00 | 0.00 | 0.00 | 65 | 1015.0 |
| 20260902222725 | 91 | 212 | 7.0 | 10.0 | 0.00 | 0.00 | 0.00 | 65 | 1014.7 |
| 20260902222225 | 91 | 220 | 7.0 | 9.0 | 0.00 | 0.00 | 0.00 | 63 | 1014.9 |
| 20260902221720 | 90 | 232 | 5.0 | 7.0 | 0.00 | 0.00 | 0.00 | 64 | 1015.4 |
| 20260902221219 | 90 | 228 | 8.0 | 14.0 | 0.00 | 0.00 | 0.00 | 63 | 1014.9 |
| 20260902220714 | 91 | 215 | 9.0 | 10.0 | 0.00 | 0.00 | 0.00 | 62 | 1015.1 |
| 20260902220209 | 91 | 237 | 7.0 | 10.0 | 0.00 | 0.00 | 0.00 | 63 | 1015.2 |
| 20260902215704 | 92 | 234 | 6.0 | 8.0 | 0.00 | 0.00 | 0.00 | 61 | 1015.2 |
| 20260902215200 | 92 | 219 | 6.0 | 10.0 | 0.00 | 0.00 | 0.00 | 62 | 1015.4 |
| 20260902214655 | 92 | 215 | 9.0 | 11.0 | 0.00 | 0.00 | 0.00 | 61 | 1015.4 |
| 20260902214154 | 92 | 243 | 7.0 | 10.0 | 0.00 | 0.00 | 0.00 | 61 | 1015.4 |
| 20260902213650 | 92 | 220 | 6.0 | 9.0 | 0.00 | 0.00 | 0.00 | 60 | 1015.1 |
| 20260902213149 | 92 | 224 | 10.0 | 14.0 | 0.00 | 0.00 | 0.00 | 60 | 1015.2 |
| 20260902212644 | 93 | 243 | 8.0 | 15.0 | 0.00 | 0.00 | 0.00 | 60 | 1015.2 |
| 20260902212140 | 93 | 252 | 9.0 | 13.0 | 0.00 | 0.00 | 0.00 | 57 | 1015.4 |
| 20260902211637 | 93 | 246 | 11.0 | 16.0 | 0.00 | 0.00 | 0.00 | 58 | 1015.2 |
| 20260902211137 | 93 | 217 | 9.0 | 14.0 | 0.00 | 0.00 | 0.00 | 59 | 1015.1 |
| 20260902210636 | 92 | 248 | 7.0 | 9.0 | 0.00 | 0.00 | 0.00 | 61 | 1015.4 |
| 20260902210131 | 93 | 245 | 10.0 | 15.0 | 0.00 | 0.00 | 0.00 | 60 | 1015.2 |
| 20260902205630 | 93 | 228 | 9.0 | 14.0 | 0.00 | 0.00 | 0.00 | 62 | 1015.5 |
| 20260902205125 | 93 | 215 | 11.0 | 14.0 | 0.00 | 0.00 | 0.00 | 61 | 1015.6 |
| 20260902204620 | 93 | 226 | 8.0 | 13.0 | 0.00 | 0.00 | 0.00 | 58 | 1015.6 |
| 20260902204115 | 94 | 248 | 7.0 | 13.0 | 0.00 | 0.00 | 0.00 | 60 | 1015.5 |
| 20260902203611 | 94 | 232 | 7.0 | 14.0 | 0.00 | 0.00 | 0.00 | 59 | 1015.6 |
| 20260902203110 | 94 | 243 | 9.0 | 15.0 | 0.00 | 0.00 | 0.00 | 58 | 1015.4 |
| 20260902202606 | 93 | 232 | 8.0 | 13.0 | 0.00 | 0.00 | 0.00 | 59 | 1015.7 |
| 20260902202103 | 94 | 230 | 13.0 | 16.0 | 0.00 | 0.00 | 0.00 | 58 | 1015.8 |
| 20260902201557 | 94 | 224 | 6.0 | 11.0 | 0.00 | 0.00 | 0.00 | 59 | 1015.8 |
| 20260902201051 | 94 | 217 | 13.0 | 16.0 | 0.00 | 0.00 | 0.00 | 59 | 1015.9 |
| 20260902200546 | 94 | 214 | 11.0 | 13.0 | 0.00 | 0.00 | 0.00 | 60 | 1015.9 |
| 20260902200042 | 94 | 249 | 8.0 | 9.0 | 0.00 | 0.00 | 0.00 | 61 | 1016.0 |
| 20260902195538 | 94 | 226 | 7.0 | 9.0 | 0.00 | 0.00 | 0.00 | 60 | 1015.9 |
| 20260902195037 | 94 | 218 | 9.0 | 14.0 | 0.00 | 0.00 | 0.00 | 59 | 1016.0 |
| 20260902194536 | 94 | 263 | 5.0 | 11.0 | 0.00 | 0.00 | 0.00 | 61 | 1016.1 |
| 20260902194032 | 94 | 208 | 9.0 | 10.0 | 0.00 | 0.00 | 0.00 | 60 | 1016.2 |
| 20260902193528 | 94 | 239 | 7.0 | 9.0 | 0.00 | 0.00 | 0.00 | 61 | 1016.1 |
| 20260902193027 | 93 | 229 | 6.0 | 9.0 | 0.00 | 0.00 | 0.00 | 61 | 1016.3 |
| 20260902192525 | 94 | 215 | 7.0 | 9.0 | 0.00 | 0.00 | 0.00 | 61 | 1016.4 |
| 20260902192024 | 94 | 228 | 9.0 | 10.0 | 0.00 | 0.00 | 0.00 | 60 | 1016.4 |
| 20260902191520 | 93 | 242 | 6.0 | 10.0 | 0.00 | 0.00 | 0.00 | 63 | 1016.3 |
| 20260902191014 | 93 | 258 | 8.0 | 10.0 | 0.00 | 0.00 | 0.00 | 62 | 1016.6 |
| 20260902190510 | 92 | 240 | 5.0 | 8.0 | 0.00 | 0.00 | 0.00 | 63 | 1016.6 |
| 20260902190005 | 91 | 240 | 6.0 | 7.0 | 0.00 | 0.00 | 0.00 | 66 | 1016.6 |
| 20260902185501 | 92 | 224 | 6.0 | 13.0 | 0.00 | 0.00 | 0.00 | 64 | 1016.5 |
| 20260902184956 | 92 | 239 | 8.0 | 10.0 | 0.00 | 0.00 | 0.00 | 66 | 1016.7 |
| 20260902184452 | 93 | 255 | 7.0 | 9.0 | 0.00 | 0.00 | 0.00 | 65 | 1016.7 |
| 20260902183947 | 92 | 235 | 5.0 | 9.0 | 0.00 | 0.00 | 0.00 | 64 | 1016.7 |
| 20260902183443 | 93 | 241 | 10.0 | 14.0 | 0.00 | 0.00 | 0.00 | 62 | 1016.7 |
| 20260902182939 | 92 | 242 | 5.0 | 9.0 | 0.00 | 0.00 | 0.00 | 66 | 1016.7 |
| 20260902182435 | 91 | 229 | 6.0 | 10.0 | 0.00 | 0.00 | 0.00 | 65 | 1016.8 |
| 20260902181932 | 91 | 229 | 7.0 | 10.0 | 0.00 | 0.00 | 0.00 | 64 | 1016.7 |
| 20260902181427 | 91 | 236 | 7.0 | 8.0 | 0.00 | 0.00 | 0.00 | 68 | 1017.0 |
| 20260902180926 | 92 | 247 | 6.0 | 9.0 | 0.00 | 0.00 | 0.00 | 64 | 1016.9 |
| 20260902180422 | 90 | 222 | 4.0 | 7.0 | 0.00 | 0.00 | 0.00 | 67 | 1017.0 |
| 20260902175918 | 90 | 235 | 5.0 | 7.0 | 0.00 | 0.00 | 0.00 | 68 | 1017.2 |
| 20260902175412 | 91 | 242 | 7.0 | 8.0 | 0.00 | 0.00 | 0.00 | 66 | 1017.3 |
| 20260902174908 | 90 | 226 | 5.0 | 9.0 | 0.00 | 0.00 | 0.00 | 67 | 1017.2 |
| 20260902174405 | 90 | 218 | 5.0 | 8.0 | 0.00 | 0.00 | 0.00 | 66 | 1017.1 |
| 20260902173901 | 91 | 231 | 7.0 | 11.0 | 0.00 | 0.00 | 0.00 | 66 | 1017.3 |
| 20260902173400 | 93 | 238 | 5.0 | 9.0 | 0.00 | 0.00 | 0.00 | 65 | 1017.3 |
| 20260902172854 | 91 | 234 | 5.0 | 9.0 | 0.00 | 0.00 | 0.00 | 65 | 1017.4 |
| 20260902172348 | 91 | 247 | 5.0 | 8.0 | 0.00 | 0.00 | 0.00 | 65 | 1017.4 |
| 20260902171844 | 92 | 214 | 6.0 | 10.0 | 0.00 | 0.00 | 0.00 | 64 | 1017.5 |
| 20260902171339 | 90 | 250 | 6.0 | 7.0 | 0.00 | 0.00 | 0.00 | 67 | 1017.6 |
| 20260902170835 | 90 | 245 | 6.0 | 9.0 | 0.00 | 0.00 | 0.00 | 64 | 1017.5 |
| 20260902170330 | 91 | 245 | 7.0 | 10.0 | 0.00 | 0.00 | 0.00 | 67 | 1017.5 |
| 20260902165826 | 91 | 249 | 7.0 | 8.0 | 0.00 | 0.00 | 0.00 | 66 | 1017.7 |
| 20260902165325 | 90 | 233 | 7.0 | 8.0 | 0.00 | 0.00 | 0.00 | 68 | 1017.6 |
| 20260902164820 | 90 | 213 | 9.0 | 14.0 | 0.00 | 0.00 | 0.00 | 64 | 1017.7 |
| 20260902164315 | 90 | 231 | 5.0 | 7.0 | 0.00 | 0.00 | 0.00 | 68 | 1017.8 |
| 20260902163814 | 90 | 235 | 6.0 | 8.0 | 0.00 | 0.00 | 0.00 | 70 | 1017.7 |
| 20260902163309 | 90 | 220 | 5.0 | 10.0 | 0.00 | 0.00 | 0.00 | 69 | 1017.9 |
| 20260902162807 | 90 | 250 | 6.0 | 9.0 | 0.00 | 0.00 | 0.00 | 70 | 1018.0 |
| 20260902162306 | 89 | 256 | 5.0 | 7.0 | 0.00 | 0.00 | 0.00 | 70 | 1018.0 |
| 20260902161756 | 87 | 227 | 4.0 | 7.0 | 0.00 | 0.00 | 0.00 | 75 | 1018.1 |
| 20260902161252 | 87 | 215 | 5.0 | 7.0 | 0.00 | 0.00 | 0.00 | 73 | 1018.1 |
| 20260902160748 | 87 | 243 | 5.0 | 8.0 | 0.00 | 0.00 | 0.00 | 73 | 1017.9 |
| 20260902160243 | 88 | 208 | 5.0 | 6.0 | 0.00 | 0.00 | 0.00 | 73 | 1017.9 |
| 20260902155741 | 87 | 227 | 4.0 | 7.0 | 0.00 | 0.00 | 0.00 | 72 | 1018.1 |
| 20260902155240 | 88 | 230 | 5.0 | 10.0 | 0.00 | 0.00 | 0.00 | 72 | 1017.9 |
| 20260902154735 | 87 | 218 | 5.0 | 8.0 | 0.00 | 0.00 | 0.00 | 74 | 1017.9 |
| 20260902154230 | 87 | 209 | 7.0 | 9.0 | 0.00 | 0.00 | 0.00 | 72 | 1017.9 |
| 20260902153724 | 87 | 235 | 5.0 | 8.0 | 0.00 | 0.00 | 0.00 | 73 | 1017.9 |
| 20260902153224 | 86 | 239 | 4.0 | 7.0 | 0.00 | 0.00 | 0.00 | 74 | 1018.0 |
| 20260902152720 | 87 | 250 | 5.0 | 8.0 | 0.00 | 0.00 | 0.00 | 74 | 1018.0 |
| 20260902152215 | 86 | 244 | 6.0 | 8.0 | 0.00 | 0.00 | 0.00 | 75 | 1018.0 |
| 20260902151711 | 85 | 228 | 4.0 | 7.0 | 0.00 | 0.00 | 0.00 | 76 | 1017.9 |
| 20260902151206 | 86 | 226 | 6.0 | 7.0 | 0.00 | 0.00 | 0.00 | 75 | 1017.9 |
| 20260902150701 | 85 | 258 | 6.0 | 9.0 | 0.00 | 0.00 | 0.00 | 76 | 1018.0 |
| 20260902150157 | 86 | 251 | 5.0 | 6.0 | 0.00 | 0.00 | 0.00 | 75 | 1017.9 |
| 20260902145655 | 85 | 245 | 7.0 | 8.0 | 0.00 | 0.00 | 0.00 | 75 | 1017.9 |
| 20260902145155 | 84 | 243 | 5.0 | 7.0 | 0.00 | 0.00 | 0.00 | 77 | 1017.8 |
| 20260902144652 | 84 | 240 | 6.0 | 8.0 | 0.00 | 0.00 | 0.00 | 77 | 1017.9 |
| 20260902144147 | 84 | 247 | 5.0 | 8.0 | 0.00 | 0.00 | 0.00 | 79 | 1017.7 |